Location: Newark
(45.2500°N, 7.5833°E)
Time: 23:38:31
(UTC+00:00)

N. Korean satellite - Pass Details

Date: 23 December 2019
Orbit: 454 x 507 km, 97.2° (Epoch: 21 January)

Event Time Altitude Azimuth Distance (km) Brightness Sun altitude
Rises 04:10:23 0° 36° (NE) 2,494 10.6 -29.9°
Maximum altitude 04:14:46 10° 89° (E) 1,600 10.1 -29.1°
Drops below altitude 10° 04:14:49 10° 90° (E) 1,600 10.1 -29.1°
Sets 04:19:04 0° 142° (SE) 2,458 10.7 -28.4°
